Location: Arbon
(43.0005°N, 0.7472°E)
Time: 11:40:44
(UTC+00:00)

Cosmos 2100 Rocket - Pass Details

Date: 22 April 2026
Orbit: 956 x 999 km, 82.9° (Epoch: 15 May)

Event Time Altitude Azimuth Distance (km) Brightness Sun altitude
Exits shadow 22:26:43 78° 345° (NNW) 984 4.0 -30.9°
Drops below altitude 10° 22:32:32 10° 7° (N) 2,715 7.0 -31.4°
Sets 22:35:04 0° 8° (N) 3,671 7.8 -31.6°
